[[{"header":{"parameterUnit":"m.s-1","parameterCategory":1,"la1":30.2991,"la2":30.254,"lo1":-89.0895,"lo2":-89.0444,"dy":0.0017,"dx":0.0017,"nx":28,"ny":28,"refTime":"2024-03-11T21:00:00:Z","depth":0,"parameterNumber":2,"parameterNumberName":"U-component_of_WINDS"},"data":[0,0,0,0,0,0,0,0,0,0,0,0,0,0,0,0,0,0,0,0,0,0,0,0,0,0,0,0,0,0,0,0,0,0,0,0,0,0,0,0,0,0,0,0,0,0,0,0,0,0,0,0,0,0,0,0,0,0,-2.383,-2.383,0,-2.3821,-2.382,-2.382,-2.3755,-2.3754,-2.3752,-2.3751,-2.3743,-2.3744,-2.3745,0,0,0,0,0,0,0,0,0,0,0,0,0,-2.3795,-2.3796,-2.383,-2.383,-2.383,-2.3821,-2.382,-2.382,-2.3755,-2.3754,-2.3752,-2.375,-2.3742,-2.3744,-2.3745,0,0,0,0,0,0,0,0,0,0,0,0,0,-2.3801,-2.3797,-2.383,-2.3796,-2.3793,-2.3821,-2.382,-2.382,-2.3756,-2.3753,-2.3751,-2.3749,-2.3742,-2.3744,-2.3746,-2.3805,0,0,-2.3751,-2.3752,0,0,0,0,0,0,0,0,-2.3801,-2.3802,-2.3801,-2.3799,-2.3795,-2.3787,-2.3805,-2.3815,-2.3756,-2.377,-2.375,-2.3748,-2.3759,-2.376,-2.3763,-2.3805,-2.3805,-2.3752,-2.3753,-2.3754,-2.3754,0,0,0,0,0,0,0,-2.38,-2.3802,-2.3826,-2.3801,-2.3798,-2.3783,-2.3781,-2.3807,-2.3778,-2.3769,-2.3764,-2.3764,-2.3757,-2.3762,-2.3763,-2.3804,-2.3752,-2.3753,-2.3754,-2.3755,-2.3897,-2.3899,0,0,0,0,0,0,-2.3804,-2.3802,-2.3827,-2.3826,-2.3792,-2.3785,-2.3783,-2.3792,-2.3778,-2.3773,-2.3766,-2.3761,-2.3759,-2.376,-2.3762,-2.3831,-2.3754,-2.3755,-2.3756,-2.3894,-2.3897,-2.39,0,0,0,0,0,0,-2.3804,-2.3807,-2.3827,-2.3813,-2.3814,-2.3788,-2.3799,-2.3793,-2.3797,-2.3776,-2.377,-2.3775,-2.3758,-2.3759,-2.3795,-2.383,-2.3756,-2.3758,-2.3891,-2.3895,-2.3899,-2.397,0,0,0,0,0,0,-2.3803,-2.3807,-2.3828,-2.3814,-2.3815,-2.3859,-2.3801,-2.3794,-2.38,-2.3794,-2.3783,-2.3779,-2.3756,-2.3793,-2.3797,-2.3831,-2.3759,-2.3888,-2.3893,-2.3897,-2.3965,-2.3976,-2.3986,0,0,0,0,0,-2.3802,-2.3849,-2.383,-2.3833,-2.3841,-2.3861,-2.3862,-2.3834,-2.3803,-2.3825,-2.3812,-2.3779,-2.3826,-2.3797,-2.3801,-2.3837,-2.3885,-2.3891,-2.3897,-2.396,-2.3974,-2.3986,0,0,0,0,0,0,-2.3868,-2.3846,-2.3825,-2.3868,-2.3867,-2.385,-2.3877,-2.385,-2.3858,-2.3851,-2.3817,-2.3815,-2.3857,-2.3851,-2.3818,-2.3895,-2.385,-2.3857,-2.3897,-2.391,-2.392,-2.392,-2.3761,0,0,0,0,0,-2.3888,-2.3906,-2.3886,-2.3926,-2.3927,-2.3903,-2.391,-2.3889,-2.3887,-2.3886,-2.3875,-2.3875,-2.3889,-2.39,-2.3912,-2.3965,-2.3962,-2.3992,-2.4002,-2.4011,-2.4017,-2.4046,-2.4059,-2.3919,-2.3919,-2.3919,0,0,-2.3929,-2.3919,-2.3932,-2.394,-2.3936,-2.3956,-2.3902,-2.3925,-2.394,-2.3889,-2.3922,-2.3915,-2.3913,-2.3958,-2.3977,-2.3954,-2.4056,-2.4019,-2.4026,-2.4027,-2.4053,-2.4066,-2.4078,-2.3923,-2.3923,-2.3922,0,0,-2.4013,-2.4007,-2.4041,-2.4039,-2.4035,-2.4018,-2.4027,-2.4015,-2.4008,-2.4041,-2.4004,-2.4022,-2.4048,-2.4048,-2.4051,-2.4139,-2.411,-2.4145,-2.4199,-2.4228,-2.4239,-2.4248,-2.4279,-2.4291,-2.4151,-2.4151,-2.4151,0,-2.4064,-2.4091,-2.4061,-2.4087,-2.4092,-2.4048,-2.4082,-2.4083,-2.4083,-2.4088,-2.4063,-2.4095,-2.4091,-2.4135,-2.4157,-2.4162,-2.4171,-2.4144,-2.4239,-2.4249,-2.4257,-2.4287,-2.4298,-2.4155,-2.4155,-2.4154,-2.4154,0,-2.4154,-2.4174,-2.4202,-2.4203,-2.4212,-2.4242,-2.4218,-2.4231,-2.421,-2.4197,-2.4232,-2.4226,-2.4236,-2.4246,-2.4226,-2.4289,-2.4275,-2.4245,-2.4199,-2.4275,-2.4302,-2.4313,-2.4161,-2.416,-2.4159,-2.4157,0,0,-2.4276,-2.4263,-2.4274,-2.4274,-2.4268,-2.4284,-2.4313,-2.4323,-2.4335,-2.4338,-2.4362,-2.4387,-2.436,-2.4364,-2.4344,-2.4369,-2.444,-2.4337,-2.4336,-2.4355,-2.4509,-2.453,-2.4544,-2.4421,-2.4424,-2.4425,-2.4509,0,-2.4357,-2.4404,-2.438,-2.4431,-2.4449,-2.441,-2.4436,-2.4436,-2.4426,-2.4441,-2.443,-2.4448,-2.4411,-2.4414,-2.4437,-2.4426,-2.447,-2.442,-2.4444,-2.4445,-2.4443,-2.4558,-2.458,-2.4659,-2.452,-2.4521,-2.4523,0,-2.4455,-2.4462,-2.4515,-2.4507,-2.4514,-2.4538,-2.4546,-2.4562,-2.4562,-2.4553,-2.4559,-2.4534,-2.4564,-2.4521,-2.4561,-2.4528,-2.4537,-2.4534,-2.4536,-2.4536,-2.4487,-2.456,-2.4684,-2.4695,-2.4539,-2.4538,-2.4537,0,-2.4538,-2.4562,-2.4596,-2.4599,-2.459,-2.4608,-2.4606,-2.4603,-2.4612,-2.462,-2.4626,-2.4638,-2.4644,-2.4655,-2.4635,-2.4605,-2.4679,-2.4634,-2.4673,-2.4673,-2.4688,-2.4687,-2.4814,-2.4697,-2.4696,-2.4696,-2.4696,0,-2.4629,-2.4663,-2.4634,-2.4655,-2.4693,-2.4666,-2.4704,-2.4698,-2.4697,-2.4717,-2.4685,-2.4705,-2.4678,-2.4696,-2.4681,-2.4718,-2.4721,-2.4715,-2.471,-2.4717,-2.4718,-2.4721,-2.4714,-2.4699,-2.4699,-2.4698,-2.4697,0,-2.4727,-2.4709,-2.4744,-2.4734,-2.4733,-2.4761,-2.4753,-2.4773,-2.4762,-2.4789,-2.4793,-2.4776,-2.4796,-2.4778,-2.4797,-2.4787,-2.4835,-2.4823,-2.4835,-2.4831,-2.487,-2.4867,-2.5003,-2.5019,-2.4893,-2.4894,-2.4895,0,-2.4785,-2.481,-2.4803,-2.4815,-2.4814,-2.4833,-2.4842,-2.4818,-2.4829,-2.4832,-2.4852,-2.487,-2.4882,-2.4916,-2.4905,-2.492,-2.4908,-2.4955,-2.491,-2.4916,-2.4908,-2.4906,-2.4908,-2.4963,-2.4965,-2.4966,-2.4967,0,-2.489,-2.488,-2.4894,-2.4906,-2.4917,-2.4925,-2.493,-2.4942,-2.4918,-2.4932,-2.4952,-2.4961,-2.4981,-2.4999,-2.5011,-2.501,-2.4985,-2.4982,-2.4991,-2.4997,-2.5003,-2.5,-2.4858,-2.4978,-2.4977,-2.4976,-2.4975,-2.4975,-2.4969,-2.499,-2.4989,-2.5006,-2.5008,-2.5014,-2.5033,-2.5025,-2.5041,-2.5055,-2.5041,-2.5065,-2.5067,-2.5081,-2.5083,-2.5103,-2.5083,-2.5097,-2.5101,-2.5104,-2.511,-2.5001,-2.5105,-2.5105,-2.5104,-2.5104,-2.5104,0,-2.5072,-2.507,-2.5086,-2.5095,-2.5109,-2.5085,-2.509,-2.5104,-2.5125,-2.5129,-2.5143,-2.5166,-2.5184,-2.5177,-2.5193,-2.521,-2.5199,-2.5215,-2.5213,-2.5213,-2.5126,-2.5116,-2.5224,-2.5224,-2.5224,-2.5224,-2.5224,-2.5224,-2.5126,-2.5161,-2.5152,-2.5188,-2.5186,-2.5209,-2.5215,-2.5222,-2.5224,-2.5252,-2.5267,-2.5262,-2.5262,-2.5278,-2.5294,-2.5292,-2.5299,-2.5319,-2.5312,-2.5231,-2.5219,-2.5208,-2.5197,-2.5321,-2.5321,-2.5397,-2.5397,-2.5398]},{"header":{"parameterUnit":"m.s-1","parameterCategory":1,"la1":30.2991,"la2":30.254,"lo1":-89.0895,"lo2":-89.0444,"dy":0.0017,"dx":0.0017,"nx":28,"ny":28,"refTime":"2024-03-11T21:00:00:Z","depth":0,"parameterNumber":3,"parameterNumberName":"V-component_of_WINDS"},"data":[0,0,0,0,0,0,0,0,0,0,0,0,0,0,0,0,0,0,0,0,0,0,0,0,0,0,0,0,0,0,0,0,0,0,0,0,0,0,0,0,0,0,0,0,0,0,0,0,0,0,0,0,0,0,0,0,0,0,2.8312,2.8312,0,2.8351,2.8351,2.8352,2.8419,2.842,2.8421,2.8422,2.8458,2.8457,2.8457,0,0,0,0,0,0,0,0,0,0,0,0,0,2.8291,2.8291,2.8312,2.8312,2.8313,2.8351,2.8351,2.8352,2.8418,2.842,2.8421,2.8423,2.8458,2.8457,2.8457,0,0,0,0,0,0,0,0,0,0,0,0,0,2.8312,2.8291,2.8311,2.835,2.8354,2.8351,2.8351,2.8352,2.8418,2.842,2.8422,2.8424,2.8458,2.8458,2.8457,2.8417,0,0,2.8456,2.8456,0,0,0,0,0,0,0,0,2.8311,2.8313,2.8344,2.8348,2.8352,2.8382,2.8357,2.8374,2.8418,2.8394,2.8422,2.8424,2.8431,2.8433,2.8436,2.8419,2.842,2.8456,2.8456,2.8456,2.8456,0,0,0,0,0,0,0,2.8309,2.8311,2.8327,2.8345,2.8349,2.8365,2.837,2.8361,2.8401,2.8396,2.8401,2.8405,2.8433,2.8436,2.8437,2.8421,2.8456,2.8456,2.8456,2.8455,2.8374,2.8372,0,0,0,0,0,0,2.8303,2.831,2.8326,2.8328,2.8336,2.8364,2.8369,2.837,2.8401,2.8408,2.8403,2.8408,2.8436,2.8437,2.8438,2.8394,2.8456,2.8455,2.8455,2.8376,2.8374,2.8372,0,0,0,0,0,0,2.8302,2.8303,2.8324,2.832,2.8324,2.8362,2.8363,2.837,2.8373,2.8407,2.8414,2.8399,2.8437,2.8439,2.8423,2.8396,2.8455,2.8455,2.8378,2.8375,2.8373,2.8305,0,0,0,0,0,0,2.8301,2.8303,2.8288,2.832,2.8324,2.8308,2.8361,2.8369,2.8373,2.8379,2.8405,2.8411,2.8439,2.8423,2.8422,2.8397,2.8455,2.8381,2.8377,2.8374,2.831,2.83,2.8292,0,0,0,0,0,2.83,2.8267,2.8287,2.8289,2.8307,2.8307,2.8309,2.8344,2.837,2.8356,2.8378,2.841,2.84,2.842,2.842,2.8395,2.8383,2.8378,2.8374,2.8314,2.8302,2.8292,0,0,0,0,0,0,2.8229,2.8271,2.8295,2.8271,2.8285,2.8318,2.8301,2.833,2.8335,2.8341,2.8382,2.8387,2.8366,2.8379,2.8401,2.8358,2.8396,2.8391,2.835,2.834,2.8331,2.8328,2.8454,0,0,0,0,0,2.8211,2.8209,2.8245,2.822,2.8226,2.8262,2.8263,2.8289,2.8304,2.831,2.8331,2.8343,2.8344,2.8342,2.8344,2.8312,2.8319,2.8295,2.8286,2.8278,2.8273,2.8258,2.8248,2.8357,2.8357,2.8357,0,0,2.8173,2.8196,2.8191,2.8207,2.822,2.8216,2.8267,2.8259,2.8256,2.8308,2.8295,2.831,2.8327,2.8303,2.8294,2.8314,2.8245,2.8273,2.8266,2.8266,2.8253,2.8242,2.8233,2.8354,2.8355,2.8355,0,0,2.8102,2.8119,2.8101,2.8114,2.8135,2.816,2.8155,2.8185,2.8198,2.8185,2.8225,2.8221,2.822,2.823,2.8236,2.817,2.8199,2.8169,2.8122,2.8107,2.8098,2.8091,2.8068,2.8059,2.8165,2.8164,2.8164,0,2.8052,2.8047,2.8087,2.8078,2.8083,2.8133,2.8114,2.8125,2.8145,2.8147,2.8169,2.817,2.8185,2.8164,2.8149,2.8151,2.8147,2.8166,2.8097,2.809,2.8083,2.8062,2.8053,2.8161,2.8161,2.8161,2.8162,0,2.7985,2.7981,2.7963,2.7984,2.7987,2.7973,2.801,2.8008,2.8034,2.8056,2.8042,2.8062,2.8069,2.8067,2.8091,2.805,2.8061,2.809,2.8128,2.8069,2.8049,2.8041,2.8155,2.8157,2.8158,2.8159,0,0,2.7868,2.7912,2.7905,2.7915,2.7943,2.7941,2.7929,2.7938,2.7936,2.7948,2.7939,2.7937,2.7964,2.797,2.7996,2.7983,2.793,2.8013,2.8014,2.7996,2.7886,2.7864,2.7854,2.795,2.7948,2.7947,2.7885,0,2.7803,2.7786,2.7822,2.7797,2.7794,2.7842,2.7832,2.7847,2.7867,2.7867,2.7889,2.7888,2.7923,2.7927,2.7916,2.7938,2.7908,2.7944,2.7941,2.794,2.7935,2.7844,2.7821,2.776,2.7877,2.7876,2.7875,0,2.7723,2.7734,2.7708,2.7739,2.7739,2.7729,2.7741,2.774,2.7759,2.7775,2.7782,2.7813,2.7803,2.7841,2.7827,2.7851,2.7852,2.7863,2.7861,2.7862,2.7903,2.7841,2.7742,2.7733,2.7863,2.7864,2.7865,0,2.7641,2.7649,2.7635,2.7642,2.7677,2.767,2.7684,2.7704,2.7708,2.7717,2.772,2.7727,2.7731,2.7736,2.7768,2.7793,2.775,2.7791,2.7762,2.7761,2.7751,2.7751,2.765,2.7752,2.7752,2.7752,2.7752,0,2.7564,2.7546,2.7599,2.759,2.7572,2.7614,2.7594,2.7613,2.7631,2.7626,2.7668,2.7662,2.7705,2.7704,2.7729,2.7714,2.7715,2.7727,2.7734,2.7723,2.7722,2.7724,2.7729,2.775,2.775,2.7751,2.7751,0,2.7469,2.7503,2.7491,2.7527,2.7535,2.752,2.755,2.7543,2.7567,2.756,2.7561,2.7597,2.7598,2.7631,2.7638,2.7655,2.763,2.7644,2.7624,2.7628,2.7598,2.76,2.7495,2.7483,2.7592,2.7591,2.759,0,2.7417,2.7405,2.7439,2.744,2.7453,2.7453,2.7457,2.7498,2.75,2.7521,2.7511,2.7516,2.7522,2.7521,2.7548,2.7554,2.7568,2.7531,2.7569,2.7559,2.7568,2.7568,2.7567,2.7522,2.7521,2.752,2.7519,0,2.7321,2.7339,2.7345,2.7356,2.736,2.7371,2.7384,2.7382,2.7426,2.7427,2.7429,2.7434,2.7443,2.7447,2.7458,2.7471,2.7502,2.7507,2.7501,2.749,2.7478,2.7484,2.7601,2.7509,2.751,2.7511,2.7511,2.7512,2.7246,2.7238,2.7262,2.7266,2.7281,2.7292,2.7288,2.7312,2.7316,2.7327,2.735,2.7349,2.7369,2.7387,2.7398,2.7397,2.7416,2.7406,2.7404,2.7401,2.7395,2.7479,2.7399,2.7399,2.74,2.74,2.74,0,2.7153,2.7171,2.7175,2.7193,2.7196,2.7227,2.7244,2.7244,2.7243,2.726,2.7265,2.7268,2.7273,2.73,2.7308,2.7302,2.7316,2.7302,2.7303,2.7305,2.7378,2.7383,2.7291,2.7291,2.7291,2.7291,2.7291,2.7291,2.7104,2.7093,2.7114,2.711,2.7128,2.7128,2.7135,2.7146,2.7159,2.7161,2.7166,2.7185,2.7206,2.7215,2.722,2.7228,2.7229,2.721,2.7223,2.729,2.73,2.731,2.7315,2.721,2.721,2.715,2.715,2.7149]}]]